Simultaneous Nadir Overpasses (SNOs) Predictions

Prediction of SNOs between FY3D and NPP Satellite Orbit:

Table of predicted SNOs for the next 14.0 days since TLE Epoch: 12/17/2022
Index Date (FY3D) Time (FY3D) Lat,Lon (FY3D) SZA (FY3D ) Date (NPP) Time (NPP) Lat,Lon (NPP) SZA (NPP ) Distance(km) Time Diff (sec)
1 12/20/2022 07:40:19 -81.21,-175.58 71.21 12/20/2022 07:41:35 -81.21,-175.73 71.24 2.64 76
2 12/20/2022 08:31:05 81.21, -8.31 108.80 12/20/2022 08:32:20 81.21, -8.40 108.77 1.47 75
3 12/20/2022 09:21:51 -81.21, 158.94 71.20 12/20/2022 09:23:05 -81.21, 158.89 71.23 0.80 74
4 12/20/2022 10:12:37 81.21, -33.80 108.81 12/20/2022 10:13:50 81.21, -33.78 108.77 0.40 73
5 12/20/2022 11:03:23 -81.21, 133.45 71.18 12/20/2022 11:04:35 -81.21, 133.51 71.23 1.04 72
6 12/20/2022 11:54:09 81.21, -59.29 108.83 12/20/2022 11:55:20 81.21, -59.16 108.77 2.25 71
7 12/20/2022 12:44:55 -81.21, 107.96 71.17 12/20/2022 12:46:05 -81.21, 108.13 71.23 2.87 70
8 12/20/2022 13:35:40 81.21, -84.39 108.79 12/20/2022 13:36:50 81.21, -84.53 108.77 2.52 70
9 12/20/2022 14:26:26 -81.21, 82.87 71.20 12/20/2022 14:27:35 -81.21, 82.76 71.23 1.88 69
10 12/20/2022 15:17:12 81.21,-109.87 108.81 12/20/2022 15:18:20 81.21,-109.91 108.78 0.67 68
11 12/20/2022 16:07:58 -81.21, 57.38 71.19 12/20/2022 16:09:05 -81.21, 57.38 71.22 0.04 67
12 12/20/2022 16:58:44 81.21,-135.36 108.82 12/20/2022 16:59:50 81.21,-135.29 108.78 1.19 66
13 12/20/2022 17:49:30 -81.21, 31.90 71.17 12/20/2022 17:50:35 -81.21, 32.00 71.22 1.80 65
14 12/20/2022 18:40:16 81.21,-160.85 108.84 12/20/2022 18:41:20 81.21,-160.67 108.78 3.05 64
15 12/20/2022 19:31:01 -81.21, 6.80 71.21 12/20/2022 19:32:05 -81.21, 6.62 71.22 2.95 64
16 12/20/2022 20:21:47 81.21, 174.05 108.80 12/20/2022 20:22:50 81.21, 173.95 108.78 1.72 63
17 12/20/2022 21:12:33 -81.21, -18.69 71.19 12/20/2022 21:13:35 -81.21, -18.75 71.22 1.11 62
18 12/20/2022 22:03:19 81.21, 148.57 108.82 12/20/2022 22:04:20 81.21, 148.58 108.79 0.15 61
19 12/20/2022 22:54:04 -81.21, -44.17 71.18 12/20/2022 22:55:04 -81.21, -44.13 71.22 0.73 60
20 12/20/2022 23:44:50 81.21, 123.08 108.83 12/20/2022 23:45:49 81.21, 123.20 108.79 2.00 59
21 12/21/2022 00:35:36 -81.21, -69.66 71.16 12/21/2022 00:36:34 -81.21, -69.51 71.21 2.57 58
22 12/21/2022 01:26:21 81.21, 97.98 108.80 12/21/2022 01:27:19 81.21, 97.82 108.79 2.77 58
23 12/21/2022 02:17:07 -81.21, -94.76 71.20 12/21/2022 02:18:04 -81.21, -94.89 71.21 2.18 57
24 12/21/2022 03:07:53 81.21, 72.49 108.82 12/21/2022 03:08:49 81.21, 72.44 108.79 0.91 56
25 12/21/2022 03:58:39 -81.21,-120.24 71.18 12/21/2022 03:59:34 -81.21,-120.26 71.21 0.34 55
26 12/21/2022 04:49:25 81.21, 47.01 108.83 12/21/2022 04:50:19 81.21, 47.06 108.79 0.95 54
27 12/21/2022 05:40:11 -81.21,-145.73 71.17 12/21/2022 05:41:04 -81.21,-145.64 71.21 1.50 53
28 12/21/2022 06:30:57 81.21, 21.52 108.85 12/21/2022 06:31:49 81.21, 21.68 108.80 2.81 52
29 12/21/2022 07:21:42 -81.21,-170.83 71.20 12/21/2022 07:22:34 -81.21,-171.02 71.21 3.25 52
30 12/21/2022 08:12:28 81.21, -3.58 108.81 12/21/2022 08:13:19 81.21, -3.69 108.80 1.96 51
31 12/21/2022 09:03:14 -81.21, 163.69 71.19 12/21/2022 09:04:04 -81.21, 163.60 71.20 1.41 50
32 12/21/2022 09:54:00 81.21, -29.07 108.83 12/21/2022 09:54:49 81.21, -29.07 108.80 0.10 49
33 12/21/2022 10:44:46 -81.21, 138.20 71.17 12/21/2022 10:45:34 -81.21, 138.23 71.20 0.43 48
34 12/21/2022 11:35:32 81.21, -54.55 108.84 12/21/2022 11:36:19 81.21, -54.45 108.80 1.76 47
35 12/21/2022 12:26:18 -81.21, 112.71 71.16 12/21/2022 12:27:04 -81.21, 112.85 71.20 2.27 46
36 12/21/2022 13:17:03 81.21, -79.65 108.81 12/21/2022 13:17:49 81.21, -79.83 108.80 3.01 46
37 12/21/2022 14:07:49 -81.21, 87.62 71.19 12/21/2022 14:08:34 -81.21, 87.47 71.20 2.48 45
38 12/21/2022 14:58:35 81.21,-105.14 108.82 12/21/2022 14:59:19 81.21,-105.21 108.81 1.15 44
39 12/21/2022 15:49:21 -81.21, 62.13 71.18 12/21/2022 15:50:04 -81.21, 62.09 71.20 0.65 43
40 12/21/2022 16:40:07 81.21,-130.63 108.83 12/21/2022 16:40:49 81.21,-130.59 108.81 0.71 42
41 12/21/2022 17:30:53 -81.21, 36.64 71.17 12/21/2022 17:31:34 -81.21, 36.71 71.20 1.20 41
42 12/21/2022 18:21:39 81.21,-156.12 108.85 12/21/2022 18:22:19 81.21,-155.97 108.81 2.57 40
43 12/21/2022 19:12:25 -81.21, 11.16 71.15 12/21/2022 19:13:04 -81.21, 11.34 71.19 3.04 39
44 12/21/2022 20:03:10 81.21, 178.78 108.81 12/21/2022 20:03:49 81.21, 178.66 108.81 2.20 39
45 12/21/2022 20:53:56 -81.21, -13.94 71.19 12/21/2022 20:54:34 -81.21, -14.04 71.19 1.71 38
46 12/21/2022 21:44:42 81.21, 153.30 108.83 12/21/2022 21:45:19 81.21, 153.28 108.81 0.35 37
47 12/21/2022 22:35:28 -81.21, -39.43 71.17 12/21/2022 22:36:04 -81.21, -39.42 71.19 0.18 36
48 12/21/2022 23:26:14 81.21, 127.81 108.84 12/21/2022 23:26:49 81.21, 127.90 108.81 1.53 35
49 12/22/2022 00:17:00 -81.21, -64.91 71.16 12/22/2022 00:17:34 -81.21, -64.80 71.19 1.98 34
50 12/22/2022 01:07:45 81.21, 102.71 108.81 12/22/2022 01:08:19 81.21, 102.52 108.82 3.24 34
51 12/22/2022 01:58:31 -81.21, -90.01 71.19 12/22/2022 01:59:04 -81.21, -90.18 71.19 2.78 33
52 12/22/2022 02:49:17 81.21, 77.22 108.82 12/22/2022 02:49:49 81.21, 77.14 108.82 1.39 32
53 12/22/2022 03:40:03 -81.21,-115.50 71.18 12/22/2022 03:40:34 -81.21,-115.55 71.19 0.95 31
54 12/22/2022 04:30:49 81.21, 51.73 108.84 12/22/2022 04:31:19 81.21, 51.76 108.82 0.49 30
55 12/22/2022 05:21:35 -81.21,-140.99 71.16 12/22/2022 05:22:04 -81.21,-140.93 71.19 0.92 29
56 12/22/2022 06:12:21 81.21, 26.25 108.85 12/22/2022 06:12:49 81.21, 26.38 108.82 2.34 28
57 12/22/2022 07:03:07 -81.21,-166.47 71.15 12/22/2022 07:03:34 -81.21,-166.31 71.18 2.75 27
58 12/22/2022 07:53:52 81.21, 1.15 108.82 12/22/2022 07:54:19 81.21, 1.00 108.82 2.43 27
59 12/22/2022 08:44:38 -81.21, 168.43 71.18 12/22/2022 08:45:04 -81.21, 168.31 71.18 2.01 26
60 12/22/2022 09:35:24 81.21, -24.34 108.83 12/22/2022 09:35:49 81.21, -24.37 108.82 0.59 25
61 12/22/2022 10:26:10 -81.21, 142.94 71.17 12/22/2022 10:26:34 -81.21, 142.93 71.18 0.24 24
62 12/22/2022 11:16:56 81.21, -49.83 108.85 12/22/2022 11:17:19 81.21, -49.75 108.82 1.30 23
63 12/22/2022 12:07:42 -81.21, 117.46 71.16 12/22/2022 12:08:04 -81.21, 117.56 71.18 1.69 22
64 12/22/2022 12:58:28 81.21, -75.32 108.86 12/22/2022 12:58:49 81.21, -75.13 108.83 3.16 21
65 12/22/2022 13:49:13 -81.21, 92.36 71.19 12/22/2022 13:49:34 -81.21, 92.18 71.18 3.07 21
66 12/22/2022 14:39:59 81.21,-100.42 108.82 12/22/2022 14:40:19 81.21,-100.51 108.83 1.62 20
67 12/22/2022 15:30:45 -81.21, 66.87 71.18 12/22/2022 15:31:04 -81.21, 66.80 71.18 1.24 19
68 12/22/2022 16:21:31 81.21,-125.90 108.84 12/22/2022 16:21:49 81.21,-125.89 108.83 0.32 18
69 12/22/2022 17:12:17 -81.21, 41.38 71.16 12/22/2022 17:12:34 -81.21, 41.42 71.18 0.65 17
70 12/22/2022 18:03:03 81.21,-151.39 108.85 12/22/2022 18:03:19 81.21,-151.27 108.83 2.12 16
71 12/22/2022 18:53:49 -81.21, 15.90 71.15 12/22/2022 18:54:04 -81.21, 16.04 71.17 2.47 15
72 12/22/2022 19:44:34 81.21,-176.49 108.82 12/22/2022 19:44:49 81.21,-176.65 108.83 2.66 15
73 12/22/2022 20:35:20 -81.21, -9.20 71.18 12/22/2022 20:35:34 -81.21, -9.34 71.17 2.30 14
74 12/22/2022 21:26:06 81.21, 158.02 108.83 12/22/2022 21:26:19 81.21, 157.97 108.83 0.83 13
75 12/22/2022 22:16:52 -81.21, -34.69 71.17 12/22/2022 22:17:04 -81.21, -34.71 71.17 0.50 12
76 12/22/2022 23:07:38 81.21, 132.53 108.85 12/22/2022 23:07:49 81.21, 132.59 108.83 1.09 11
77 12/22/2022 23:58:24 -81.21, -60.18 71.16 12/22/2022 23:58:34 -81.21, -60.09 71.17 1.42 10
78 12/23/2022 00:49:09 81.21, 107.43 108.81 12/23/2022 00:49:18 81.20, 107.60 108.78 2.93 9
79 12/23/2022 01:39:54 -81.21, -85.27 71.19 12/23/2022 01:40:02 -81.20, -85.09 71.22 3.24 8
80 12/23/2022 02:30:40 81.21, 81.94 108.82 12/23/2022 02:30:48 81.21, 81.84 108.84 1.85 8
81 12/23/2022 03:21:26 -81.21,-110.76 71.18 12/23/2022 03:21:33 -81.21,-110.85 71.17 1.53 7
82 12/23/2022 04:12:12 81.21, 56.45 108.84 12/23/2022 04:12:18 81.21, 56.46 108.84 0.28 6
83 12/23/2022 05:02:58 -81.21,-136.25 71.16 12/23/2022 05:03:03 -81.21,-136.23 71.17 0.43 5
84 12/23/2022 05:53:44 81.21, 30.97 108.85 12/23/2022 05:53:48 81.21, 31.08 108.84 1.91 4
85 12/23/2022 06:44:30 -81.21,-161.74 71.15 12/23/2022 06:44:33 -81.21,-161.61 71.17 2.19 3
86 12/23/2022 07:35:15 81.21, 5.87 108.82 12/23/2022 07:35:18 81.21, 5.70 108.84 2.89 3
87 12/23/2022 08:26:01 -81.21, 173.17 71.19 12/23/2022 08:26:03 -81.21, 173.01 71.17 2.59 2
88 12/23/2022 09:16:47 81.21, -19.62 108.83 12/23/2022 09:16:48 81.21, -19.68 108.84 1.06 1
89 12/23/2022 10:07:33 -81.21, 147.68 71.17 12/23/2022 10:07:33 -81.21, 147.64 71.17 0.79 0
90 12/23/2022 10:58:19 81.21, -45.11 108.84 12/23/2022 10:58:18 81.21, -45.06 108.84 0.90 1
91 12/23/2022 11:49:05 -81.21, 122.19 71.16 12/23/2022 11:49:03 -81.21, 122.26 71.17 1.16 2
92 12/23/2022 12:39:50 81.21, -70.21 108.81 12/23/2022 12:39:47 81.20, -70.05 108.79 2.70 3
93 12/23/2022 13:30:36 -81.21, 97.09 71.20 12/23/2022 13:30:32 -81.20, 97.26 71.22 2.95 4
94 12/23/2022 14:21:22 81.21, -95.70 108.82 12/23/2022 14:21:18 81.21, -95.82 108.84 2.08 4
95 12/23/2022 15:12:08 -81.21, 71.60 71.18 12/23/2022 15:12:03 -81.21, 71.50 71.16 1.82 5
96 12/23/2022 16:02:54 81.21,-121.19 108.84 12/23/2022 16:02:48 81.21,-121.20 108.84 0.40 6
97 12/23/2022 16:53:40 -81.21, 46.12 71.17 12/23/2022 16:53:33 -81.21, 46.12 71.16 0.34 7
98 12/23/2022 17:44:25 81.21,-146.29 108.80 12/23/2022 17:44:17 81.20,-146.19 108.79 1.69 8
99 12/23/2022 18:35:11 -81.21, 21.02 71.20 12/23/2022 18:35:02 -81.20, 21.13 71.22 1.91 9
100 12/23/2022 19:25:57 81.21,-171.78 108.81 12/23/2022 19:25:48 81.21,-171.96 108.84 3.12 9
101 12/23/2022 20:16:43 -81.21, -4.47 71.19 12/23/2022 20:16:33 -81.21, -4.64 71.16 2.87 10
102 12/23/2022 21:07:29 81.21, 162.73 108.83 12/23/2022 21:07:18 81.21, 162.66 108.85 1.29 11
103 12/23/2022 21:58:15 -81.21, -29.96 71.18 12/23/2022 21:58:03 -81.21, -30.02 71.16 1.07 12
104 12/23/2022 22:49:00 81.21, 137.64 108.79 12/23/2022 22:48:47 81.20, 137.67 108.79 0.74 13
105 12/23/2022 23:39:47 -81.21, -55.44 71.16 12/23/2022 23:39:33 -81.21, -55.40 71.16 0.92 14
106 12/24/2022 00:30:32 81.21, 112.15 108.81 12/24/2022 00:30:17 81.20, 112.29 108.79 2.47 15
107 12/24/2022 01:21:18 -81.21, -80.54 71.20 12/24/2022 01:21:02 -81.20, -80.39 71.21 2.67 16
108 12/24/2022 02:12:04 81.21, 86.66 108.82 12/24/2022 02:11:48 81.21, 86.52 108.85 2.31 16
109 12/24/2022 03:02:50 -81.21,-106.03 71.19 12/24/2022 03:02:33 -81.21,-106.15 71.16 2.10 17
110 12/24/2022 03:53:36 81.21, 61.17 108.83 12/24/2022 03:53:18 81.21, 61.14 108.85 0.60 18
111 12/24/2022 04:44:22 -81.21,-131.52 71.17 12/24/2022 04:44:03 -81.21,-131.53 71.16 0.46 19
112 12/24/2022 05:35:07 81.21, 36.07 108.80 12/24/2022 05:34:47 81.20, 36.15 108.79 1.46 20
113 12/24/2022 06:25:53 -81.21,-156.62 71.21 12/24/2022 06:25:32 -81.20,-156.53 71.21 1.63 21
114 12/24/2022 07:16:39 81.21, 10.58 108.81 12/24/2022 07:16:17 81.20, 10.77 108.80 3.28 22
115 12/24/2022 08:07:25 -81.21, 177.89 71.20 12/24/2022 08:07:03 -81.21, 177.71 71.16 3.15 22
116 12/24/2022 08:58:11 81.21, -14.91 108.82 12/24/2022 08:57:48 81.21, -15.00 108.85 1.52 23
117 12/24/2022 09:48:57 -81.21, 152.41 71.18 12/24/2022 09:48:33 -81.21, 152.33 71.16 1.35 24
118 12/24/2022 10:39:42 81.21, -40.01 108.79 12/24/2022 10:39:17 81.20, -39.99 108.80 0.53 25
119 12/24/2022 11:30:28 -81.21, 127.31 71.22 12/24/2022 11:30:02 -81.20, 127.34 71.21 0.66 26
120 12/24/2022 12:21:14 81.21, -65.50 108.80 12/24/2022 12:20:47 81.20, -65.37 108.80 2.25 27
121 12/24/2022 13:12:00 -81.21, 101.82 71.21 12/24/2022 13:11:32 -81.20, 101.96 71.21 2.39 28
122 12/24/2022 14:02:46 81.21, -90.99 108.81 12/24/2022 14:02:18 81.21, -91.13 108.85 2.53 28
123 12/24/2022 14:53:32 -81.21, 76.33 71.19 12/24/2022 14:53:03 -81.21, 76.19 71.16 2.38 29
124 12/24/2022 15:44:17 81.21,-116.09 108.78 12/24/2022 15:43:47 81.20,-116.13 108.80 0.76 30
125 12/24/2022 16:35:03 -81.21, 51.23 71.23 12/24/2022 16:34:32 -81.20, 51.20 71.21 0.66 31
126 12/24/2022 17:25:49 81.21,-141.58 108.79 12/24/2022 17:25:17 81.20,-141.51 108.80 1.23 32
127 12/24/2022 18:16:35 -81.21, 25.74 71.22 12/24/2022 18:16:02 -81.20, 25.82 71.21 1.35 33
128 12/24/2022 19:07:21 81.21,-167.07 108.80 12/24/2022 19:06:47 81.20,-166.89 108.80 3.07 34
129 12/24/2022 19:58:07 -81.21, 0.25 71.20 12/24/2022 19:57:32 -81.20, 0.44 71.21 3.16 35
130 12/24/2022 20:48:52 81.21, 167.83 108.77 12/24/2022 20:48:17 81.20, 167.73 108.80 1.74 35
131 12/24/2022 21:39:39 -81.21, -25.23 71.19 12/24/2022 21:39:03 -81.21, -25.32 71.16 1.63 36
132 12/24/2022 22:30:24 81.21, 142.34 108.78 12/24/2022 22:29:47 81.20, 142.35 108.80 0.33 37
133 12/24/2022 23:21:10 -81.21, -50.33 71.23 12/24/2022 23:20:32 -81.20, -50.32 71.21 0.41 38
134 12/25/2022 00:11:56 81.21, 116.85 108.79 12/25/2022 00:11:17 81.20, 116.97 108.80 2.03 39
135 12/25/2022 01:02:42 -81.21, -75.82 71.21 12/25/2022 01:02:02 -81.20, -75.70 71.21 2.11 40
136 12/25/2022 01:53:28 81.21, 91.36 108.81 12/25/2022 01:52:48 81.21, 91.21 108.85 2.75 40
137 12/25/2022 02:44:14 -81.21,-101.31 71.20 12/25/2022 02:43:33 -81.21,-101.46 71.16 2.66 41
138 12/25/2022 03:34:59 81.21, 66.26 108.77 12/25/2022 03:34:17 81.20, 66.21 108.80 0.92 42
139 12/25/2022 04:25:45 -81.21,-126.41 71.24 12/25/2022 04:25:02 -81.20,-126.46 71.21 0.86 43
140 12/25/2022 05:16:30 81.21, 40.77 108.78 12/25/2022 05:15:46 81.21, 40.83 108.80 1.01 44
141 12/25/2022 06:07:16 -81.21,-151.90 71.22 12/25/2022 06:06:31 -81.20,-151.84 71.21 1.08 45
142 12/25/2022 06:58:02 81.21, 15.28 108.80 12/25/2022 06:57:16 81.21, 15.45 108.80 2.85 46
143 12/25/2022 07:48:48 -81.21,-177.39 71.21 12/25/2022 07:48:01 -81.20,-177.22 71.21 2.90 47
144 12/25/2022 08:39:33 81.21, -9.82 108.76 12/25/2022 08:38:46 81.21, -9.93 108.80 1.92 47
145 12/25/2022 09:30:19 -81.21, 157.51 71.25 12/25/2022 09:29:31 -81.20, 157.40 71.21 1.88 48
146 12/25/2022 10:21:05 81.21, -35.31 108.77 12/25/2022 10:20:16 81.21, -35.31 108.80 0.21 49
147 12/25/2022 11:11:51 -81.21, 132.03 71.24 12/25/2022 11:11:01 -81.20, 132.02 71.21 0.25 50
148 12/25/2022 12:02:37 81.21, -60.80 108.79 12/25/2022 12:01:46 81.21, -60.69 108.80 1.82 51
149 12/25/2022 12:53:23 -81.21, 106.54 71.22 12/25/2022 12:52:31 -81.20, 106.65 71.21 1.85 52
150 12/25/2022 13:44:08 81.21, -85.90 108.75 12/25/2022 13:43:16 81.21, -86.07 108.80 2.95 52
151 12/25/2022 14:34:54 -81.21, 81.44 71.26 12/25/2022 14:34:01 -81.20, 81.27 71.21 2.92 53
152 12/25/2022 15:25:40 81.21,-111.39 108.76 12/25/2022 15:24:46 81.21,-111.45 108.80 1.09 54
153 12/25/2022 16:16:26 -81.21, 55.95 71.25 12/25/2022 16:15:31 -81.21, 55.89 71.21 1.09 55
154 12/25/2022 17:07:12 81.21,-136.88 108.78 12/25/2022 17:06:16 81.21,-136.83 108.80 0.80 56
155 12/25/2022 17:57:58 -81.21, 30.46 71.23 12/25/2022 17:57:01 -81.21, 30.51 71.21 0.80 57
156 12/25/2022 18:48:44 81.21,-162.37 108.79 12/25/2022 18:47:46 81.21,-162.21 108.80 2.65 58
157 12/25/2022 19:39:30 -81.21, 4.97 71.22 12/25/2022 19:38:31 -81.21, 5.13 71.21 2.63 59
158 12/25/2022 20:30:15 81.21, 172.53 108.75 12/25/2022 20:29:16 81.21, 172.41 108.80 2.11 59
159 12/25/2022 21:21:01 -81.21, -20.13 71.26 12/25/2022 21:20:01 -81.21, -20.25 71.21 2.12 60
160 12/25/2022 22:11:47 81.21, 147.04 108.76 12/25/2022 22:10:46 81.21, 147.03 108.80 0.27 61
161 12/25/2022 23:02:33 -81.21, -45.62 71.25 12/25/2022 23:01:31 -81.21, -45.63 71.21 0.32 62
162 12/25/2022 23:53:19 81.21, 121.55 108.78 12/25/2022 23:52:16 81.21, 121.65 108.80 1.62 63
163 12/26/2022 00:44:05 -81.21, -71.11 71.23 12/26/2022 00:43:01 -81.21, -71.01 71.21 1.58 64
164 12/26/2022 01:34:50 81.21, 96.45 108.74 12/26/2022 01:33:46 81.21, 96.27 108.80 3.14 64
165 12/26/2022 02:25:36 -81.21, -96.21 71.27 12/26/2022 02:24:31 -81.21, -96.39 71.21 3.17 65
166 12/26/2022 03:16:22 81.21, 70.96 108.75 12/26/2022 03:15:16 81.21, 70.89 108.80 1.28 66
167 12/26/2022 04:07:08 -81.21,-121.69 71.26 12/26/2022 04:06:01 -81.21,-121.77 71.21 1.33 67
168 12/26/2022 04:57:54 81.21, 45.47 108.76 12/26/2022 04:56:46 81.21, 45.51 108.80 0.59 68
169 12/26/2022 05:48:40 -81.21,-147.18 71.25 12/26/2022 05:47:31 -81.21,-147.15 71.21 0.54 69
170 12/26/2022 06:39:26 81.21, 19.98 108.78 12/26/2022 06:38:16 81.21, 20.13 108.80 2.45 70
171 12/26/2022 07:30:12 -81.21,-172.67 71.23 12/26/2022 07:29:01 -81.21,-172.53 71.21 2.37 71
172 12/26/2022 08:20:57 81.21, -5.12 108.74 12/26/2022 08:19:46 81.21, -5.25 108.80 2.30 71
173 12/26/2022 09:11:43 -81.21, 162.23 71.27 12/26/2022 09:10:31 -81.21, 162.09 71.21 2.37 72
174 12/26/2022 10:02:29 81.21, -30.61 108.75 12/26/2022 10:01:16 81.21, -30.64 108.79 0.44 73
175 12/26/2022 10:53:15 -81.21, 136.74 71.26 12/26/2022 10:52:01 -81.21, 136.71 71.22 0.53 74
176 12/26/2022 11:44:01 81.21, -56.10 108.76 12/26/2022 11:42:46 81.21, -56.02 108.79 1.43 75



Historial Predications of SNOs between FY3D and NPP
